Torna al catalogo

COSMOS 1275 DEB

AttivoPO
NORAD 29295·DEBRIS·🇷🇺 Russia

Lanciato Jun 4, 1981 da Plesetsk Cosmodrome

Loading…

Prossimi Passaggi (prossime 24 ore)

TLE

AggiornatoSource: Space-Track

Epoca: Sep 11, 2026, 06:25 UTC

1 29295U 81053MS  26254.26802407  .00000624  00000-0  60214-3 0  9990
2 29295  82.9551  79.6800 0110520  12.6641 108.2043 13.75838928703897

Traccia COSMOS 1275 DEB in tempo reale con AllMySat

Download on the App Store